User: anonymous   Login
Location: B?jaj?g
(11.7167°N, 92.6667°E)
Time: 14:46:24
(UTC+00:00)
Language:

CZ-3 Stage 3 - Orbit

View from above orbital plane
View from above orbital plane
View from above satellite
View from above satellite

Ground track
Ground track

The orbit data is extracted from the following two-line orbital elements,

1 16528U 86010B   21206.93412080  .00000090  00000-0  28472-3 0  9990
2 16528  30.4890 146.7273 7189501 315.2575   5.5669  2.31657630247824
Epoch (UTC): 25 July 2021 22:25:08
Eccentricity: 0.7189501
inclination: 30.4890°
perigee height: 403 km
apogee height: 35095 km
right ascension of ascending node: 146.7273°
argument of perigee: 315.2575°
revolutions per day: 2.31657630
mean anomaly at epoch: 5.5669°
orbit number at epoch: 24782

The dashed part of the orbit path shows where the satellite is in the earth's shadow,  

DLR